STARLINK-5456 (55667 NORAD) Tracking and Keplerian Element Data

This shows tracking and keplerian element data for the satellite.

Feedback or suggestion? Click here.




ElementValue
Catalog55667
NameSTARLINK-5456
Epoch Orbit130
Epoch Day62.91667824
Epoch Year2023
RAAN110.1833
Inclination70
Eccentricity0.0003565
Argument of Perigee261.3286
Mean Anonmoly348.1314
Mean Motion15.7524927
Decay Rate-0.00973037
L11 55667U 23021AR 23062.91667824 -.00973037 00000+0 -72301-2 0 9998
L22 55667 70.0000 110.1833 0003565 261.3286 348.1314 15.75249270 1302



Live tracking and technical data element details for STARLINK-5456 (NORAD 55667). STARLINK-5456 can be tracked NOW for your location showing map with azimuth and elevation plus other details from your city location.







IsCatalogInMostPopularTable: catalog: 55667, numindb: 2
Update: records affected: 1



GetName: 55667 STARLINK-5456

Hit Count: updated at: Wed, 22 Mar 2023 15:52:22 GMT